Weather History for Pensacola NAS, FL

Change the Weather History Date:

Thursday, November 22, 2012

  Actual Average Record
Temperature  
Mean Temperature 58 °F -  
Max Temperature 73 °F 67 °F 80 °F (1999)
Min Temperature 42 °F 49 °F 27 °F (2000)
Degree Days  
Heating Degree Days 8    
Growing Degree Days 8 (Base 50)    
Moisture  
Dew Point 49 °F    
Average Humidity 86    
Maximum Humidity 100    
Minimum Humidity 42    
Precipitation  
Precipitation 0.00 in - - ()
Sea Level Pressure  
Sea Level Pressure 30.19 in    
Wind  
Wind Speed 2 mph (NNW)    
Max Wind Speed 8 mph    
Max Gust Speed -    
Visibility 6 miles    
Events Fog , Rain    
Averages and records for this station are not official NWS values.
T = Trace of Precipitation, MM = Missing Value Source: NWS Daily Summary

Daily Weather History Graph

Daily Weather History Graph

Search for Another Location

Airport:

Trip Planner

Search our weather history database for the weather conditions in past years. The results will help you decide how hot, cold, wet, or windy it might be!

Date:

Astronomy

Nov. 22, 2012 Rise Set
Actual Time 6:21 AM CST 4:49 PM CST
Civil Twilight 5:55 AM CST 5:15 PM CST
Nautical Twilight 5:26 AM CST 5:44 PM CST
Astronomical Twilight 4:57 AM CST 6:13 PM CST
Moon 1:16 PM CST (11/22) 1:01 AM CST (11/22)
Length of Visible Light 11h 19m
Length of Day
10h 28m
Waxing Gibbous, 71% of the Moon is Illuminated
Nov 22
Waxing Gibbous
Nov 28
Full
Dec 6
Last Quarter
Dec 13
New
Dec 19
First Quarter

Hourly Weather History & Observations

Time (CST) Temp. Windchill Dew Point Humidity Pressure Visibility Wind Dir Wind Speed Gust Speed Precip Events Conditions
12:56 AM 51.1 °F - 51.1 °F 100% 30.17 in 7.0 mi Calm Calm - 0.00 in   Clear
1:56 AM 50.0 °F - 50.0 °F 100% 30.16 in 6.0 mi NNW 4.6 mph - 0.00 in   Clear
2:56 AM 48.0 °F - 48.0 °F 100% 30.17 in 4.0 mi Calm Calm - 0.00 in   Clear
3:13 AM 46.4 °F - 46.4 °F 100% 30.16 in 1.8 mi Calm Calm - N/A   Clear
3:25 AM 44.6 °F - 44.6 °F 100% 30.16 in 3.0 mi Calm Calm - N/A   Clear
3:33 AM 44.6 °F - 44.6 °F 100% 30.16 in 1.8 mi Calm Calm - N/A   Clear
3:56 AM 46.9 °F - 46.0 °F 97% 30.17 in 3.0 mi NNW 3.5 mph - N/A   Clear
4:56 AM 46.9 °F - 46.9 °F 100% 30.18 in 6.0 mi Calm Calm - 0.00 in   Clear
5:56 AM 45.0 °F - 44.1 °F 97% 30.19 in 3.0 mi Calm Calm - N/A   Clear
6:25 AM 42.8 °F - 42.8 °F 100% 30.19 in 1.8 mi Calm Calm - 0.00 in Rain Light Rain
6:38 AM 44.6 °F 43.1 °F 44.6 °F 100% 30.20 in 2.5 mi NW 3.5 mph - 0.00 in   Clear
6:56 AM 46.0 °F 43.9 °F 45.0 °F 96% 30.21 in 4.0 mi North 4.6 mph - 0.00 in   Clear
7:56 AM 57.0 °F - 52.0 °F 83% 30.22 in 10.0 mi North 3.5 mph - N/A   Clear
8:56 AM 64.9 °F - 52.0 °F 63% 30.24 in 10.0 mi NNE 3.5 mph - N/A   Clear
9:56 AM 68.0 °F - 51.1 °F 55% 30.25 in 10.0 mi ENE 3.5 mph - N/A   Clear
10:56 AM 73.0 °F - 48.9 °F 42% 30.23 in 10.0 mi NE 3.5 mph - N/A   Clear
11:56 AM 73.0 °F - 48.9 °F 42% 30.21 in 10.0 mi SSE 8.1 mph - N/A   Clear
12:56 PM 72.0 °F - 50.0 °F 46% 30.19 in 10.0 mi SSE 6.9 mph - N/A   Clear
1:56 PM 70.0 °F - 48.9 °F 47% 30.18 in 10.0 mi SSE 8.1 mph - N/A   Clear
2:56 PM 70.0 °F - 51.1 °F 51% 30.18 in 10.0 mi South 6.9 mph - N/A   Clear
3:56 PM 66.9 °F - 54.0 °F 63% 30.19 in 10.0 mi SSW 5.8 mph - N/A   Clear
4:56 PM 62.1 °F - 55.9 °F 80% 30.19 in 10.0 mi SSW 3.5 mph - N/A   Clear
5:56 PM 57.9 °F - 55.9 °F 93% 30.19 in 10.0 mi SW 3.5 mph - N/A   Clear
6:56 PM 55.0 °F - 54.0 °F 96% 30.19 in 10.0 mi Calm Calm - N/A   Clear
7:51 PM 48.2 °F - 48.2 °F 100% 30.20 in 1.8 mi Calm Calm - N/A   Clear
7:56 PM 51.1 °F - 51.1 °F 100% 30.20 in 1.5 mi Calm Calm - N/A   Clear
8:07 PM 51.8 °F - 51.8 °F 100% 30.20 in 0.2 mi Calm Calm - N/A Fog Fog
8:15 PM 53.6 °F - 51.8 °F 94% 30.20 in 1.0 mi Calm Calm - N/A   Clear
8:17 PM 53.6 °F - 51.8 °F 94% 30.20 in 4.0 mi Calm Calm - N/A   Clear
8:56 PM 48.9 °F - 48.9 °F 100% 30.21 in 5.0 mi Calm Calm - 0.00 in   Clear
9:56 PM 48.9 °F - 48.0 °F 97% 30.21 in 3.0 mi Calm Calm - N/A   Clear
10:56 PM 48.0 °F - 48.0 °F 100% 30.21 in 5.0 mi Calm Calm - N/A   Clear
11:56 PM 48.0 °F - 46.9 °F 96% 30.21 in 1.0 mi Calm Calm - 0.00 in   Clear